• In Uzbekistan
  • List of Countries
  • For 7 days
  • Water Temperature
  • Satellite Maps
  • Weather Map
  • Weather Widgets
  • user-avatar
    Login

    Hourly Weather Kipungo

    Today, 17 December, Monday

    Time Temperature Precipitation Wind Pressure Humidity
    00:00 +21°C° 0 mm 2 mps 654 mmHg 65%
    01:00 +20°C° 0 mm 2 mps 654 mmHg 69%
    02:00 +20°C° 0 mm 2 mps 653 mmHg 68%
    03:00 +20°C° 0 mm 2 mps 653 mmHg 68%
    04:00 +19°C° 0 mm 3 mps 653 mmHg 67%
    05:00 +20°C° 0 mm 2 mps 654 mmHg 64%
    06:00 +22°C° 0 mm 1 mps 654 mmHg 61%
    07:00 +22°C° 0 mm 1 mps 655 mmHg 57%
    08:00 +25°C° 0 mm 1 mps 656 mmHg 48%
    09:00 +28°C° 0 mm 2 mps 656 mmHg 39%
    10:00 +31°C° 0 mm 2 mps 657 mmHg 30%
    11:00 +34°C° 0 mm 2 mps 657 mmHg 27%
    12:00 +36°C° 0 mm 2 mps 656 mmHg 24%
    13:00 +38°C° 0 mm 2 mps 656 mmHg 20%
    14:00 +37°C° 0 mm 2 mps 655 mmHg 23%
    15:00 +35°C° 0 mm 2 mps 654 mmHg 25%
    16:00 +32°C° 0 mm 2 mps 654 mmHg 28%
    17:00 +31°C° 0 mm 3 mps 654 mmHg 32%
    18:00 +29°C° 0 mm 3 mps 654 mmHg 37%
    19:00 +28°C° 0 mm 4 mps 654 mmHg 41%
    20:00 +26°C° 0 mm 3 mps 654 mmHg 48%
    21:00 +25°C° 0 mm 3 mps 654 mmHg 54%
    22:00 +24°C° 0 mm 3 mps 655 mmHg 61%
    23:00 +23°C° 0 mm 2 mps 654 mmHg 65%

    Tomorrow, 18 December, Tuesday

    Time Temperature Precipitation Wind Pressure Humidity
    00:00 +21°C° 0 mm 2 mps 654 mmHg 70%
    01:00 +20°C° 0 mm 2 mps 654 mmHg 74%
    02:00 +19°C° 0 mm 2 mps 653 mmHg 77%
    03:00 +20°C° 0 mm 1 mps 653 mmHg 80%
    04:00 +19°C° 0 mm 1 mps 653 mmHg 83%
    05:00 +20°C° 0 mm 1 mps 654 mmHg 77%
    06:00 +21°C° 0 mm 1 mps 654 mmHg 70%
    07:00 +23°C° 0 mm 2 mps 655 mmHg 64%
    08:00 +26°C° 0 mm 2 mps 656 mmHg 53%
    09:00 +29°C° 0 mm 2 mps 656 mmHg 41%
    10:00 +32°C° 0 mm 2 mps 657 mmHg 30%
    11:00 +32°C° 0 mm 2 mps 656 mmHg 29%
    12:00 +32°C° 0 mm 2 mps 655 mmHg 29%
    13:00 +34°C° 0 mm 2 mps 655 mmHg 28%
    14:00 +33°C° 0.1 mm 3 mps 654 mmHg 30%
    15:00 +31°C° 0.1 mm 3 mps 654 mmHg 32%
    16:00 +32°C° 0.1 mm 4 mps 653 mmHg 34%
    17:00 +29°C° 0 mm 4 mps 653 mmHg 38%
    18:00 +28°C° 0 mm 4 mps 653 mmHg 41%
    19:00 +26°C° 0 mm 4 mps 654 mmHg 45%
    20:00 +25°C° 0 mm 4 mps 654 mmHg 48%
    21:00 +24°C° 0 mm 3 mps 654 mmHg 51%
    22:00 +22°C° 0 mm 3 mps 655 mmHg 54%
    23:00 +21°C° 0 mm 3 mps 654 mmHg 57%

    Day after tomorrow, 19 December, Wednesday

    Time Temperature Precipitation Wind Pressure Humidity
    00:00 +21°C° 0 mm 3 mps 654 mmHg 60%
    01:00 +20°C° 0 mm 2 mps 654 mmHg 63%
    02:00 +19°C° 0 mm 2 mps 653 mmHg 66%
    03:00 +18°C° 0 mm 2 mps 653 mmHg 68%
    04:00 +18°C° 0 mm 1 mps 653 mmHg 71%
    05:00 +19°C° 0 mm 1 mps 653 mmHg 67%
    06:00 +20°C° 0 mm 1 mps 654 mmHg 63%
    07:00 +21°C° 0 mm 1 mps 655 mmHg 59%
    08:00 +25°C° 0 mm 2 mps 655 mmHg 48%
    09:00 +28°C° 0 mm 2 mps 656 mmHg 36%
    10:00 +32°C° 0 mm 2 mps 657 mmHg 25%
    11:00 +35°C° 0 mm 2 mps 657 mmHg 23%
    12:00 +37°C° 0 mm 2 mps 656 mmHg 20%
    13:00 +38°C° 0 mm 2 mps 656 mmHg 18%
    14:00 +37°C° 0 mm 2 mps 655 mmHg 20%
    15:00 +35°C° 0 mm 2 mps 654 mmHg 22%
    16:00 +34°C° 0 mm 2 mps 653 mmHg 24%
    17:00 +31°C° 0 mm 3 mps 653 mmHg 27%
    18:00 +30°C° 0 mm 4 mps 653 mmHg 31%
    19:00 +28°C° 0 mm 4 mps 653 mmHg 35%
    20:00 +26°C° 0 mm 4 mps 654 mmHg 41%
    21:00 +24°C° 0 mm 3 mps 654 mmHg 48%
    22:00 +21°C° 0 mm 3 mps 654 mmHg 55%
    23:00 +20°C° 0 mm 2 mps 654 mmHg 59%

    20 December, Thursday

    Time Temperature Precipitation Wind Pressure Humidity
    00:00 +19°C° 0 mm 2 mps 653 mmHg 62%
    01:00 +18°C° 0 mm 2 mps 653 mmHg 66%
    02:00 +18°C° 0 mm 2 mps 652 mmHg 67%
    03:00 +17°C° 0 mm 2 mps 652 mmHg 67%
    04:00 +17°C° 0 mm 2 mps 652 mmHg 68%
    05:00 +18°C° 0 mm 2 mps 653 mmHg 62%
    06:00 +20°C° 0 mm 1 mps 654 mmHg 55%
    07:00 +22°C° 0 mm 1 mps 654 mmHg 49%
    08:00 +25°C° 0 mm 1 mps 655 mmHg 39%
    09:00 +29°C° 0 mm 2 mps 656 mmHg 29%
    10:00 +34°C° 0 mm 2 mps 656 mmHg 19%
    11:00 +36°C° 0 mm 2 mps 656 mmHg 18%
    12:00 +37°C° 0 mm 2 mps 655 mmHg 17%
    13:00 +39°C° 0 mm 2 mps 655 mmHg 15%
    14:00 +38°C° 0 mm 2 mps 654 mmHg 17%
    15:00 +36°C° 0 mm 2 mps 653 mmHg 19%
    16:00 +35°C° 0 mm 2 mps 653 mmHg 21%
    17:00 +32°C° 0 mm 2 mps 653 mmHg 25%
    18:00 +30°C° 0 mm 3 mps 653 mmHg 29%
    19:00 +28°C° 0 mm 4 mps 653 mmHg 34%
    20:00 +26°C° 0 mm 4 mps 654 mmHg 42%
    21:00 +23°C° 0 mm 4 mps 654 mmHg 51%
    22:00 +21°C° 0 mm 4 mps 654 mmHg 60%
    23:00 +20°C° 0 mm 3 mps 654 mmHg 65%

    21 December, Friday

    Time Temperature Precipitation Wind Pressure Humidity
    00:00 +19°C° 0 mm 2 mps 653 mmHg 69%
    01:00 +18°C° 0 mm 2 mps 653 mmHg 74%
    02:00 +17°C° 0 mm 2 mps 653 mmHg 76%
    03:00 +17°C° 0 mm 2 mps 652 mmHg 78%
    04:00 +16°C° 0 mm 1 mps 652 mmHg 80%
    05:00 +18°C° 0 mm 1 mps 653 mmHg 72%
    06:00 +20°C° 0 mm 1 mps 654 mmHg 64%
    07:00 +21°C° 0 mm 1 mps 654 mmHg 55%
    08:00 +25°C° 0 mm 2 mps 655 mmHg 42%
    09:00 +29°C° 0 mm 2 mps 656 mmHg 29%
    10:00 +34°C° 0 mm 3 mps 656 mmHg 16%
    11:00 +35°C° 0 mm 3 mps 656 mmHg 14%
    12:00 +37°C° 0 mm 3 mps 655 mmHg 13%
    13:00 +38°C° 0 mm 4 mps 655 mmHg 11%
    14:00 +38°C° 0 mm 4 mps 654 mmHg 11%
    15:00 +38°C° 0 mm 3 mps 654 mmHg 12%
    16:00 +37°C° 0 mm 3 mps 653 mmHg 12%
    17:00 +35°C° 0 mm 3 mps 653 mmHg 16%
    18:00 +31°C° 0 mm 3 mps 653 mmHg 20%
    19:00 +29°C° 0 mm 3 mps 653 mmHg 23%
    20:00 +27°C° 0 mm 3 mps 653 mmHg 35%
    21:00 +25°C° 0 mm 3 mps 653 mmHg 47%
    22:00 +22°C° 0 mm 4 mps 653 mmHg 59%
    23:00 +21°C° 0 mm 3 mps 652 mmHg 63%

    22 December, Saturday

    Time Temperature Precipitation Wind Pressure Humidity
    00:00 +20°C° 0 mm 3 mps 652 mmHg 68%
    01:00 +19°C° 0 mm 2 mps 651 mmHg 72%
    02:00 +18°C° 0 mm 2 mps 651 mmHg 74%
    03:00 +17°C° 0 mm 2 mps 651 mmHg 77%
    04:00 +18°C° 0 mm 1 mps 651 mmHg 79%
    05:00 +19°C° 0 mm 1 mps 652 mmHg 72%
    06:00 +20°C° 0 mm 1 mps 652 mmHg 65%
    07:00 +22°C° 0 mm 1 mps 653 mmHg 57%
    08:00 +26°C° 0 mm 1 mps 654 mmHg 44%
    09:00 +29°C° 0 mm 2 mps 655 mmHg 30%
    10:00 +34°C° 0 mm 2 mps 655 mmHg 17%
    11:00 +36°C° 0 mm 2 mps 655 mmHg 14%
    12:00 +38°C° 0 mm 2 mps 654 mmHg 12%
    13:00 +39°C° 0 mm 2 mps 654 mmHg 10%
    14:00 +39°C° 0 mm 3 mps 653 mmHg 11%
    15:00 +39°C° 0 mm 3 mps 653 mmHg 11%
    16:00 +38°C° 0 mm 3 mps 652 mmHg 12%
    17:00 +35°C° 0 mm 3 mps 652 mmHg 18%
    18:00 +32°C° 0 mm 4 mps 652 mmHg 25%
    19:00 +28°C° 0 mm 4 mps 651 mmHg 31%
    20:00 +26°C° 0 mm 4 mps 652 mmHg 39%
    21:00 +24°C° 0 mm 3 mps 652 mmHg 47%
    22:00 +21°C° 0 mm 3 mps 652 mmHg 55%
    23:00 +20°C° 0 mm 3 mps 651 mmHg 59%
    Show more